�N����,����,�~����,�C��,���x,�C��,����,���ϕ���,�ő�u�ԕ���,�ő厞����,���˗�,�I�_���x,�n�����x,�ő啗���N��,DTYPE
"17/06/03","00:10",0.0,12.2,88.1,999.8,308.3,1.3,1.8,318.2,0.00,10.3,19.2,"00:01:36",1
"17/06/03","00:20",0.0,12.3,88.4,999.3,325.5,1.3,1.9,330.8,0.00,10.5,19.1,"00:13:04",1
"17/06/03","00:30",0.0,12.3,88.3,999.6,297.2,1.1,1.6,314.0,0.00,10.5,19.0,"00:22:40",1
"17/06/03","00:40",0.0,12.0,88.2,999.6,293.2,0.7,1.9,339.1,0.00,10.1,19.0,"00:38:40",1
"17/06/03","00:50",0.0,11.9,88.6,999.3,299.8,1.0,2.1,310.3,0.00,10.1,19.1,"00:44:24",1
"17/06/03","01:00",0.0,12.0,89.1,999.3,301.5,1.0,2.1,353.2,0.00,10.3,18.8,"00:51:52",1
"17/06/03","01:10",0.0,11.8,89.2,999.1,287.4,1.0,1.8,316.6,0.00,10.1,18.9,"01:04:16",1
"17/06/03","01:20",0.0,11.7,89.8,999.3,301.0,0.6,1.4,334.8,0.00,10.1,18.8,"01:17:30",1
"17/06/03","01:30",0.0,11.6,90.4,999.1,311.7,1.0,1.9,315.6,0.00,10.1,18.5,"01:24:00",1
"17/06/03","01:40",0.0,11.6,90.4,999.1,305.6,1.2,2.1,317.5,0.00,10.1,18.5,"01:33:12",1
"17/06/03","01:50",0.0,11.4,90.3,999.1,297.5,1.1,2.0,335.0,0.00,9.9,18.6,"01:42:08",1
"17/06/03","02:00",0.0,11.5,91.5,998.6,328.9,1.3,2.2,339.8,0.00,10.2,18.5,"01:58:34",1
"17/06/03","02:10",0.0,11.6,91.8,999.1,330.4,1.5,1.9,323.7,0.00,10.4,18.6,"02:00:40",1
"17/06/03","02:20",0.0,11.9,91.3,998.9,333.3,1.5,2.2,336.0,0.00,10.6,18.4,"02:15:28",1
"17/06/03","02:30",0.0,12.0,90.7,999.1,324.6,0.8,1.6,338.7,0.00,10.6,18.2,"02:26:00",1
"17/06/03","02:40",0.0,12.0,90.2,999.3,331.0,1.1,1.4,341.2,0.00,10.5,18.2,"02:32:00",1
"17/06/03","02:50",0.0,11.9,89.9,999.3,326.2,1.1,2.0,335.9,0.00,10.3,18.1,"02:46:40",1
"17/06/03","03:00",0.0,11.7,89.9,999.3,303.3,0.7,1.4,316.2,0.00,10.1,18.2,"02:57:46",1
"17/06/03","03:10",0.0,11.5,90.3,999.3,324.4,1.0,1.8,314.5,0.00,10.0,18.0,"03:09:54",1
"17/06/03","03:20",0.0,11.9,90.8,999.6,313.5,1.6,2.9,329.8,0.00,10.5,18.2,"03:17:12",1
"17/06/03","03:30",0.0,12.4,89.8,999.8,325.4,2.3,3.9,328.8,0.00,10.8,18.0,"03:20:24",1
"17/06/03","03:40",0.0,12.5,88.8,1000.0,321.7,2.1,3.4,324.6,0.00,10.7,17.9,"03:39:20",1
"17/06/03","03:50",0.0,12.6,88.0,1000.0,325.0,2.2,3.5,328.3,0.00,10.7,18.0,"03:48:40",1
"17/06/03","04:00",0.0,12.7,87.1,1000.5,331.9,2.2,3.7,343.5,0.00,10.7,17.9,"03:53:20",1
"17/06/03","04:10",0.0,12.7,86.5,1000.5,321.2,2.1,3.3,337.0,0.00,10.5,18.0,"04:00:48",1
"17/06/03","04:20",0.0,12.6,86.5,1000.0,324.3,1.7,2.8,313.3,0.00,10.4,17.8,"04:14:00",1
"17/06/03","04:30",0.0,12.5,86.7,1000.3,325.5,2.0,2.7,316.6,0.00,10.4,17.8,"04:20:40",1
"17/06/03","04:40",0.0,12.5,86.8,1000.5,330.2,2.0,3.2,330.2,0.00,10.4,17.7,"04:38:32",1
"17/06/03","04:50",0.0,12.5,86.5,1000.5,315.4,1.8,3.2,332.1,0.00,10.4,17.8,"04:40:32",1
"17/06/03","05:00",0.0,12.6,86.1,1000.3,328.9,2.3,3.3,342.7,0.00,10.4,17.7,"04:55:04",1
"17/06/03","05:10",0.0,12.5,85.7,1000.5,314.3,1.7,3.1,316.6,0.00,10.2,17.8,"05:08:16",1
"17/06/03","05:20",0.0,12.5,86.3,1001.0,312.5,1.7,3.5,337.7,0.00,10.3,17.7,"05:18:24",1
"17/06/03","05:30",0.0,12.7,85.9,1001.0,320.3,2.0,4.3,321.2,0.00,10.4,17.7,"05:21:04",1
"17/06/03","05:40",0.0,12.9,85.7,1001.0,321.8,1.6,2.9,307.2,0.00,10.6,17.8,"05:30:56",1
"17/06/03","05:50",0.0,12.9,85.4,1001.2,308.0,1.3,2.7,332.3,0.00,10.6,17.4,"05:43:04",1
"17/06/03","06:00",0.0,13.1,85.0,1001.5,309.3,1.2,2.1,335.0,0.01,10.7,17.6,"05:59:20",1
"17/06/03","06:10",0.0,13.4,84.5,1001.5,316.3,1.6,3.2,334.5,0.01,10.9,17.6,"06:07:24",1
"17/06/03","06:20",0.0,13.8,83.7,1001.5,317.2,1.2,2.1,322.6,0.04,11.1,17.6,"06:11:20",1
"17/06/03","06:30",0.0,14.6,81.5,1001.2,286.5,0.8,2.5,312.8,0.04,11.5,17.4,"06:29:52",1
"17/06/03","06:40",0.0,14.8,79.0,1001.5,285.6,1.2,2.1,310.6,0.04,11.2,17.6,"06:39:28",1
"17/06/03","06:50",0.0,14.9,77.8,1001.9,302.6,1.6,3.5,334.0,0.05,11.1,17.8,"06:44:40",1
"17/06/03","07:00",0.0,16.2,75.6,1001.9,310.8,1.5,3.1,322.8,0.14,11.9,18.0,"06:54:48",1
"17/06/03","07:10",0.0,16.0,73.0,1002.2,311.5,1.8,4.2,341.2,0.09,11.2,17.8,"07:09:12",1
"17/06/03","07:20",0.0,16.0,73.4,1001.9,311.3,2.0,5.2,342.6,0.14,11.3,18.0,"07:19:28",1
"17/06/03","07:30",0.0,16.5,71.6,1001.9,327.1,2.2,4.7,344.8,0.20,11.4,18.1,"07:28:56",1
"17/06/03","07:40",0.0,16.8,70.4,1002.2,325.9,2.0,4.2,315.1,0.19,11.4,18.3,"07:38:08",1
"17/06/03","07:50",0.0,16.4,71.2,1002.2,325.7,2.2,4.3,325.7,0.14,11.2,18.3,"07:47:44",1
"17/06/03","08:00",0.0,16.8,70.6,1002.4,292.3,1.7,3.1,329.7,0.18,11.5,18.3,"07:57:28",1
"17/06/03","08:10",0.0,17.1,70.4,1002.2,309.1,2.1,4.1,329.5,0.24,11.7,18.2,"08:03:44",1
"17/06/03","08:20",0.0,17.9,68.0,1001.9,286.9,1.8,4.7,340.9,0.33,12.0,18.7,"08:16:56",1
"17/06/03","08:30",0.0,17.9,66.5,1001.7,275.5,1.7,5.2,229.9,0.27,11.6,18.8,"08:21:28",1
"17/06/03","08:40",0.0,17.9,67.9,1001.7,296.9,1.6,3.6,348.2,0.26,11.9,18.8,"08:33:44",1
"17/06/03","08:50",0.0,17.6,67.6,1001.2,295.7,1.7,4.3,340.6,0.20,11.6,19.1,"08:46:24",1
"17/06/03","09:00",0.0,17.7,67.1,1001.5,291.4,1.6,3.4,309.5,0.21,11.6,19.0,"08:56:08",1
"17/06/03","09:10",0.0,18.1,66.5,1001.7,297.3,1.8,3.5,337.3,0.27,11.8,19.4,"09:03:36",1
"17/06/03","09:20",0.0,18.6,66.8,1001.7,292.4,1.8,3.7,339.3,0.34,12.4,19.6,"09:19:04",1
"17/06/03","09:30",0.0,19.0,65.0,1001.2,279.8,1.6,3.7,233.5,0.32,12.3,19.6,"09:20:24",1
"17/06/03","09:40",0.0,19.3,61.7,1001.5,286.9,2.0,4.3,331.0,0.42,11.8,19.9,"09:35:36",1
"17/06/03","09:50",0.0,19.7,59.7,1001.0,291.7,1.8,4.7,345.2,0.37,11.7,20.1,"09:49:36",1
"17/06/03","10:00",0.0,20.1,55.8,1001.2,350.0,2.5,5.2,352.9,0.47,11.0,20.2,"09:54:00",1
"17/06/03","10:10",0.0,20.3,56.1,1000.8,357.4,2.7,6.0,336.9,0.45,11.3,20.4,"10:03:28",1
"17/06/03","10:20",0.0,20.5,53.8,1001.2,3.0,2.3,7.2,346.1,0.48,10.9,20.7,"10:11:44",1
"17/06/03","10:30",0.0,20.9,53.6,1000.8,352.1,1.6,3.3,347.0,0.43,11.2,20.8,"10:20:16",1
"17/06/03","10:40",0.0,21.2,53.7,1000.8,333.8,1.7,4.9,338.8,0.48,11.5,21.2,"10:38:16",1
"17/06/03","10:50",0.0,20.6,52.9,1000.8,341.3,2.8,5.0,349.8,0.46,10.7,21.5,"10:48:16",1
"17/06/03","11:00",0.0,21.0,51.7,1000.3,354.4,2.5,5.0,336.0,0.44,10.7,21.6,"10:52:56",1
"17/06/03","11:10",0.0,21.3,55.0,1000.8,353.4,2.5,5.7,14.1,0.50,11.9,21.8,"11:05:28",1
"17/06/03","11:20",0.0,21.9,50.6,1000.3,342.8,2.0,4.1,17.8,0.61,11.2,22.0,"11:11:12",1
"17/06/03","11:30",0.0,22.2,47.6,1000.3,13.8,2.3,5.4,351.4,0.64,10.6,22.4,"11:25:44",1
"17/06/03","11:40",0.0,21.7,49.2,1000.0,229.6,1.1,3.6,341.2,0.47,10.6,22.5,"11:34:56",1
"17/06/03","11:50",0.0,22.1,51.4,1000.3,229.3,1.8,4.1,214.3,0.52,11.7,22.7,"11:44:16",1
"17/06/03","12:00",0.0,22.7,48.5,999.8,332.0,1.7,3.4,343.6,0.56,11.3,22.8,"11:57:36",1
"17/06/03","12:10",0.0,22.9,45.2,999.6,310.3,1.5,5.0,26.0,0.55,10.5,23.0,"12:00:16",1
"17/06/03","12:20",0.0,22.4,48.8,999.8,344.4,2.0,4.5,32.9,0.30,11.2,23.1,"12:14:08",1
"17/06/03","12:30",0.0,23.0,51.1,999.6,287.5,1.6,3.6,343.7,0.51,12.4,23.2,"12:20:16",1
"17/06/03","12:40",0.0,23.4,46.1,999.1,253.1,1.7,4.1,328.9,0.52,11.2,23.5,"12:32:08",1
"17/06/03","12:50",0.0,23.5,48.0,999.3,277.2,1.7,4.2,294.6,0.50,11.9,23.8,"12:48:08",1
"17/06/03","13:00",0.0,23.4,46.4,998.6,333.9,1.6,3.3,317.4,0.39,11.3,23.8,"12:50:32",1
"17/06/03","13:10",0.0,23.3,48.0,998.6,304.1,1.3,3.5,343.8,0.36,11.7,23.7,"13:06:00",1
"17/06/03","13:20",0.0,22.4,47.5,998.9,312.3,1.8,4.5,344.4,0.23,10.7,23.5,"13:19:20",1
"17/06/03","13:30",0.0,22.6,48.9,998.9,336.1,2.5,5.0,332.5,0.28,11.4,23.8,"13:27:36",1
"17/06/03","13:40",0.0,22.6,50.2,998.9,332.6,3.0,6.6,331.5,0.35,11.8,23.7,"13:33:04",1
"17/06/03","13:50",0.0,22.4,48.2,998.4,345.7,3.1,6.5,346.5,0.36,11.0,23.5,"13:48:24",1
"17/06/03","14:00",0.0,23.1,47.0,998.6,339.1,3.2,6.2,315.7,0.58,11.2,23.5,"13:58:48",1
"17/06/03","14:10",0.0,24.0,45.4,998.6,354.3,3.0,5.8,334.9,0.56,11.5,23.6,"14:01:44",1
"17/06/03","14:20",0.0,23.9,46.2,998.4,341.4,3.1,6.3,310.2,0.57,11.7,23.7,"14:13:12",1
"17/06/03","14:30",0.0,24.3,43.1,998.6,336.9,1.8,4.8,345.0,0.55,11.0,23.7,"14:20:08",1
"17/06/03","14:40",0.0,23.2,44.3,998.4,14.2,1.3,3.4,352.9,0.34,10.4,23.6,"14:32:48",1
"17/06/03","14:50",0.0,23.4,48.1,998.4,11.4,1.7,4.3,305.4,0.33,11.8,23.9,"14:47:04",1
"17/06/03","15:00",0.0,23.9,45.4,997.9,339.4,2.5,5.6,337.6,0.43,11.4,23.9,"14:56:00",1
"17/06/03","15:10",0.0,24.0,45.2,997.9,345.6,2.7,6.2,334.1,0.50,11.5,23.9,"15:09:36",1
"17/06/03","15:20",0.0,23.8,44.4,997.9,11.3,2.5,5.0,344.7,0.44,11.0,23.8,"15:11:04",1
"17/06/03","15:30",0.0,23.2,45.3,998.4,340.4,3.1,5.7,319.7,0.34,10.8,23.7,"15:21:36",1
"17/06/03","15:40",0.0,23.3,46.3,998.4,348.1,2.8,5.5,359.3,0.40,11.2,23.7,"15:30:56",1
"17/06/03","15:50",0.0,23.1,45.7,998.4,355.3,3.1,7.4,331.8,0.38,10.8,23.7,"15:41:36",1
"17/06/03","16:00",0.0,22.9,48.0,998.4,352.2,3.0,5.4,353.7,0.34,11.4,23.8,"15:50:16",1
"17/06/03","16:10",0.0,22.9,47.0,998.9,340.9,2.8,7.5,327.9,0.31,11.0,23.7,"16:07:12",1
"17/06/03","16:20",0.0,22.2,47.1,998.6,340.8,3.4,6.2,341.4,0.19,10.4,23.8,"16:11:12",1
"17/06/03","16:30",0.0,21.7,49.2,998.9,350.8,2.5,4.4,9.2,0.12,10.6,23.5,"16:27:36",1
"17/06/03","16:40",0.0,22.0,47.9,998.9,343.3,2.8,6.0,324.9,0.19,10.5,23.5,"16:37:44",1
"17/06/03","16:50",0.0,22.2,48.1,999.1,343.9,2.5,5.5,324.6,0.20,10.7,23.5,"16:46:48",1
"17/06/03","17:00",0.0,22.4,48.5,999.3,344.9,2.2,5.9,325.0,0.20,11.1,23.4,"16:54:40",1
"17/06/03","17:10",0.0,22.2,48.2,999.6,343.7,3.0,5.6,328.7,0.12,10.8,23.4,"17:07:20",1
"17/06/03","17:20",0.0,21.8,48.5,999.3,340.3,2.8,6.4,329.5,0.06,10.5,23.4,"17:12:08",1
"17/06/03","17:30",0.0,21.3,51.6,999.8,334.0,3.1,6.0,349.4,0.04,11.0,23.2,"17:24:56",1
"17/06/03","17:40",0.0,20.7,52.2,999.8,335.3,4.0,6.4,324.0,0.03,10.6,23.1,"17:31:36",1
"17/06/03","17:50",0.0,20.4,52.8,999.8,335.5,3.2,6.7,342.8,0.03,10.5,23.0,"17:44:48",1
"17/06/03","18:00",0.0,20.2,53.1,1000.0,345.2,3.2,6.0,354.0,0.03,10.4,22.7,"17:52:00",1
"17/06/03","18:10",0.0,19.9,51.9,1000.3,338.9,2.6,5.8,317.7,0.02,9.8,22.7,"18:06:56",1
"17/06/03","18:20",0.0,19.7,53.3,1000.5,343.9,2.3,4.9,323.0,0.02,10.0,22.6,"18:17:28",1
"17/06/03","18:30",0.0,19.5,54.6,1000.5,335.8,1.5,3.1,342.6,0.01,10.2,22.5,"18:22:08",1
"17/06/03","18:40",0.0,19.0,56.3,1001.0,323.4,1.2,2.8,334.5,0.00,10.2,22.3,"18:37:04",1
"17/06/03","18:50",0.0,18.6,58.0,1001.0,335.3,1.6,4.4,333.9,0.00,10.2,22.3,"18:40:48",1
"17/06/03","19:00",0.0,18.4,57.9,1001.2,342.6,1.3,2.0,351.2,0.00,10.0,22.1,"18:50:40",1
"17/06/03","19:10",0.0,18.2,58.9,1001.5,349.6,1.6,3.2,17.7,0.00,10.1,21.9,"19:02:48",1
"17/06/03","19:20",0.0,18.0,60.0,1001.2,346.6,1.6,3.6,321.2,0.00,10.2,21.9,"19:11:12",1
"17/06/03","19:30",0.0,17.8,59.9,1001.2,351.9,1.5,2.2,357.1,0.00,10.0,21.8,"19:20:08",1
"17/06/03","19:40",0.0,17.5,60.8,1001.5,353.8,1.7,3.5,335.6,0.00,9.9,21.6,"19:33:04",1
"17/06/03","19:50",0.0,17.1,63.0,1001.7,335.0,1.8,3.9,319.1,0.00,10.0,21.5,"19:47:04",1
"17/06/03","20:00",0.0,16.9,64.5,1001.5,332.8,2.3,4.1,356.3,0.00,10.2,21.2,"19:56:40",1
"17/06/03","20:10",0.0,16.8,65.9,1001.9,337.5,2.3,4.7,326.6,0.00,10.4,21.1,"20:08:32",1
"17/06/03","20:20",0.0,16.8,66.0,1001.9,336.6,2.0,3.4,325.7,0.00,10.5,21.0,"20:13:36",1
"17/06/03","20:30",0.0,16.7,66.1,1001.9,340.9,2.5,5.9,339.0,0.00,10.4,21.1,"20:20:56",1
"17/06/03","20:40",0.0,16.5,67.0,1002.2,333.0,2.2,3.5,338.4,0.00,10.4,20.7,"20:38:08",1
"17/06/03","20:50",0.0,16.4,68.5,1002.6,345.6,2.3,4.9,345.8,0.00,10.6,20.8,"20:46:32",1
"17/06/03","21:00",0.0,16.3,68.3,1002.6,339.7,2.0,3.3,332.4,0.00,10.5,20.7,"20:54:24",1
"17/06/03","21:10",0.0,16.3,68.6,1002.9,332.7,2.1,4.3,334.9,0.00,10.6,20.5,"21:08:00",1
"17/06/03","21:20",0.0,16.2,68.7,1002.9,331.3,3.0,4.9,323.9,0.00,10.5,20.6,"21:13:36",1
"17/06/03","21:30",0.0,16.3,69.3,1003.1,330.1,3.0,5.7,331.4,0.00,10.7,20.3,"21:24:40",1
"17/06/03","21:40",0.0,16.2,69.1,1002.9,331.5,2.7,4.9,333.7,0.00,10.6,20.2,"21:37:44",1
"17/06/03","21:50",0.0,16.1,69.5,1003.1,334.9,1.6,2.7,354.4,0.00,10.6,20.3,"21:47:36",1
"17/06/03","22:00",0.0,16.0,69.6,1003.1,341.9,1.5,3.1,343.3,0.00,10.5,20.2,"21:51:36",1
"17/06/03","22:10",0.0,16.0,69.7,1003.4,339.5,1.8,3.9,358.5,0.00,10.5,20.2,"22:02:16",1
"17/06/03","22:20",0.0,15.8,70.0,1003.1,334.6,1.6,3.1,339.7,0.00,10.4,20.1,"22:14:40",1
"17/06/03","22:30",0.0,15.7,70.3,1003.4,325.5,1.1,1.9,332.2,0.00,10.4,20.2,"22:21:04",1
"17/06/03","22:40",0.0,15.6,71.2,1003.4,261.2,0.6,1.1,249.0,0.00,10.4,19.9,"22:31:52",1
"17/06/03","22:50",0.0,15.5,71.3,1003.1,307.3,1.0,1.6,1.7,0.00,10.4,19.7,"22:49:36",1
"17/06/03","23:00",0.0,15.4,72.0,1003.6,329.2,1.3,2.0,322.2,0.00,10.4,19.7,"22:57:28",1
"17/06/03","23:10",0.0,15.4,72.6,1003.4,328.7,1.8,3.2,339.1,0.00,10.5,19.9,"23:05:44",1
"17/06/03","23:20",0.0,15.3,72.6,1003.8,326.0,2.0,2.8,323.7,0.00,10.5,19.8,"23:15:52",1
"17/06/03","23:30",0.0,15.3,72.0,1003.6,323.4,2.5,3.6,315.3,0.00,10.3,19.7,"23:24:48",1
"17/06/03","23:40",0.0,15.2,72.8,1003.4,329.6,2.5,3.5,320.3,0.00,10.4,19.7,"23:37:28",1
"17/06/03","23:50",0.0,15.1,73.4,1003.6,329.5,2.3,3.3,339.8,0.00,10.4,19.4,"23:40:24",1
"17/06/03","24:00",0.0,14.8,74.5,1003.4,330.4,1.6,2.8,330.4,0.00,10.4,19.6,"23:50:48",1
